[[{"header":{"parameterUnit":"m.s-1","parameterCategory":1,"la1":30.2991,"la2":30.254,"lo1":-89.0895,"lo2":-89.0444,"dy":0.0017,"dx":0.0017,"nx":28,"ny":28,"refTime":"2023-08-09T21:00:00:Z","depth":0,"parameterNumber":2,"parameterNumberName":"U-component_of_WINDS"},"data":[0,0,0,0,0,0,0,0,0,0,0,0,0,0,0,0,0,0,0,0,0,0,0,0,0,0,0,0,0,0,0,0,0,0,0,0,0,0,0,0,0,0,0,0,0,0,0,0,0,0,0,0,0,0,0,0,0,0,4.4447,4.4447,0,4.4465,4.4466,4.4466,4.4382,4.438,4.4377,4.4375,4.4393,4.4396,4.4399,0,0,0,0,0,0,0,0,0,0,0,0,0,4.4338,4.4341,4.4447,4.4447,4.4448,4.4465,4.4466,4.4466,4.4382,4.4379,4.4377,4.4374,4.4393,4.4396,4.4399,0,0,0,0,0,0,0,0,0,0,0,0,0,4.4374,4.4342,4.4447,4.4408,4.4405,4.4465,4.4466,4.4466,4.4383,4.4379,4.4376,4.4372,4.4391,4.4395,4.44,4.4498,0,0,4.4412,4.4414,0,0,0,0,0,0,0,0,4.4372,4.4378,4.4414,4.4411,4.4407,4.4418,4.4434,4.4477,4.4384,4.4391,4.4375,4.4371,4.4404,4.4407,4.4419,4.4499,4.45,4.4413,4.4415,4.4417,4.4418,0,0,0,0,0,0,0,4.437,4.4377,4.4454,4.4414,4.441,4.4389,4.439,4.4442,4.4418,4.439,4.4384,4.4388,4.4402,4.4415,4.4419,4.45,4.4412,4.4416,4.4419,4.442,4.4658,4.4662,0,0,0,0,0,0,4.4373,4.4375,4.4454,4.4455,4.438,4.4394,4.4395,4.4418,4.4417,4.4414,4.4391,4.4384,4.441,4.4414,4.4419,4.4531,4.4417,4.4421,4.4423,4.4655,4.4659,4.4663,0,0,0,0,0,0,4.4371,4.438,4.4453,4.4413,4.4421,4.44,4.4426,4.442,4.4433,4.4418,4.4413,4.4408,4.4407,4.4413,4.4478,4.453,4.4423,4.4426,4.465,4.4656,4.4661,4.4758,0,0,0,0,0,0,4.4368,4.438,4.4418,4.4415,4.4423,4.4513,4.4429,4.4423,4.444,4.4431,4.4433,4.443,4.4405,4.4472,4.4482,4.4534,4.443,4.4645,4.4653,4.4659,4.475,4.4766,4.478,0,0,0,0,0,4.4364,4.4445,4.442,4.443,4.447,4.4516,4.4521,4.449,4.4445,4.4482,4.4472,4.443,4.4524,4.448,4.449,4.4544,4.4642,4.4651,4.4659,4.4743,4.4763,4.478,0,0,0,0,0,0,4.4456,4.4444,4.4416,4.4499,4.4509,4.4502,4.4548,4.4513,4.4536,4.4527,4.4488,4.4489,4.456,4.4559,4.451,4.4638,4.4575,4.4586,4.4635,4.4654,4.4669,4.4666,4.4433,0,0,0,0,0,4.4486,4.4524,4.4512,4.4586,4.4592,4.457,4.4588,4.4564,4.4572,4.4576,4.4571,4.4581,4.4612,4.4634,4.4662,4.475,4.4748,4.4792,4.4808,4.482,4.4829,4.4872,4.4891,4.4692,4.4692,4.4691,0,0,4.4547,4.4546,4.4573,4.4604,4.4609,4.4648,4.4574,4.4619,4.4647,4.4583,4.4643,4.464,4.4648,4.4724,4.4758,4.4726,4.4884,4.4831,4.4841,4.4843,4.4883,4.4902,4.4918,4.4698,4.4696,4.4696,0,0,4.4679,4.4684,4.4743,4.475,4.4757,4.4741,4.4756,4.4754,4.4748,4.4808,4.476,4.4793,4.4849,4.4856,4.4867,4.4999,4.496,4.501,4.5088,4.513,4.5146,4.516,4.5203,4.522,4.502,4.502,4.502,0,4.4755,4.4812,4.4779,4.4827,4.484,4.4784,4.4843,4.4851,4.4868,4.4879,4.4843,4.491,4.4912,4.4987,4.5019,4.5031,4.5045,4.5008,4.5147,4.516,4.5172,4.5213,4.523,4.5026,4.5025,4.5025,4.5024,0,4.4903,4.4943,4.4991,4.5007,4.5027,4.5081,4.5054,4.5078,4.5052,4.504,4.51,4.51,4.5126,4.5143,4.5119,4.5214,4.5193,4.5153,4.5088,4.5197,4.5235,4.5251,4.5034,4.5032,4.503,4.5029,0,0,4.5091,4.5087,4.5105,4.511,4.5114,4.5144,4.5195,4.5219,4.5239,4.5253,4.5292,4.534,4.5302,4.5315,4.5291,4.5328,4.5429,4.5283,4.5282,4.5306,4.5529,4.5557,4.5576,4.5404,4.5407,4.5409,4.5527,0,4.5217,4.5302,4.5272,4.5358,4.5393,4.534,4.5383,4.539,4.538,4.5407,4.5396,4.5429,4.5379,4.5385,4.542,4.5409,4.5472,4.5401,4.5438,4.5439,4.5433,4.5596,4.5626,4.5737,4.5542,4.5545,4.5547,0,4.5375,4.5393,4.5482,4.5476,4.549,4.553,4.5548,4.5576,4.5582,4.5572,4.5585,4.5552,4.56,4.5538,4.5601,4.5553,4.5567,4.5564,4.5567,4.5567,4.5497,4.5596,4.5772,4.5787,4.557,4.5569,4.5567,0,4.5498,4.5545,4.5603,4.561,4.5607,4.5635,4.5635,4.5637,4.5653,4.567,4.5679,4.5702,4.5714,4.5732,4.5705,4.5663,4.5772,4.5708,4.5762,4.5763,4.5784,4.5782,4.5961,4.58,4.58,4.58,4.5799,0,4.5639,4.5694,4.5658,4.5693,4.5753,4.572,4.578,4.5774,4.5776,4.5808,4.5766,4.5797,4.5762,4.579,4.577,4.5824,4.5831,4.5822,4.5815,4.5823,4.5824,4.5829,4.5819,4.5804,4.5803,4.5802,4.5801,0,4.5785,4.5764,4.5823,4.5814,4.5814,4.5858,4.585,4.5882,4.5869,4.591,4.5918,4.5897,4.5927,4.5904,4.5934,4.5921,4.599,4.5975,4.5988,4.5982,4.6035,4.6029,4.622,4.6242,4.6071,4.6073,4.6074,0,4.5875,4.5916,4.5911,4.5929,4.5931,4.5962,4.5977,4.5946,4.5963,4.5972,4.6002,4.6029,4.6048,4.6099,4.6086,4.6108,4.609,4.6156,4.6093,4.6099,4.6086,4.6083,4.6085,4.6167,4.6169,4.6171,4.6173,0,4.6034,4.6021,4.6044,4.6063,4.6082,4.6096,4.6107,4.6125,4.6092,4.6114,4.6144,4.6159,4.6189,4.6214,4.6232,4.6232,4.6196,4.6193,4.6206,4.6212,4.6216,4.6211,4.6018,4.6188,4.6186,4.6185,4.6184,4.6184,4.6152,4.6184,4.6185,4.6212,4.6216,4.6226,4.6255,4.6244,4.6268,4.6289,4.627,4.6305,4.6308,4.6328,4.6332,4.6358,4.6331,4.6351,4.6355,4.6359,4.6365,4.6216,4.6362,4.6361,4.6361,4.6361,4.636,0,4.6305,4.6303,4.6328,4.6343,4.6363,4.6329,4.6338,4.6357,4.6388,4.6394,4.6413,4.6447,4.6471,4.646,4.6481,4.6505,4.6489,4.6511,4.6507,4.6507,4.639,4.6375,4.6523,4.6523,4.6523,4.6523,4.6523,4.6523,4.6387,4.6439,4.6426,4.6478,4.6476,4.6509,4.6517,4.6525,4.6529,4.6567,4.6587,4.658,4.6578,4.6599,4.6619,4.6615,4.6624,4.6651,4.6641,4.6531,4.6515,4.65,4.6485,4.6654,4.6654,4.6754,4.6755,4.6756]},{"header":{"parameterUnit":"m.s-1","parameterCategory":1,"la1":30.2991,"la2":30.254,"lo1":-89.0895,"lo2":-89.0444,"dy":0.0017,"dx":0.0017,"nx":28,"ny":28,"refTime":"2023-08-09T21:00:00:Z","depth":0,"parameterNumber":3,"parameterNumberName":"V-component_of_WINDS"},"data":[0,0,0,0,0,0,0,0,0,0,0,0,0,0,0,0,0,0,0,0,0,0,0,0,0,0,0,0,0,0,0,0,0,0,0,0,0,0,0,0,0,0,0,0,0,0,0,0,0,0,0,0,0,0,0,0,0,0,6.9342,6.9343,0,6.9413,6.9414,6.9414,6.9374,6.9372,6.937,6.9368,6.9434,6.9437,6.9441,0,0,0,0,0,0,0,0,0,0,0,0,0,6.9164,6.9167,6.9342,6.9343,6.9344,6.9413,6.9414,6.9414,6.9374,6.9372,6.937,6.9367,6.9433,6.9437,6.9441,0,0,0,0,0,0,0,0,0,0,0,0,0,6.9238,6.9169,6.9342,6.9332,6.9332,6.9412,6.9414,6.9415,6.9375,6.9372,6.9369,6.9366,6.9431,6.9437,6.9442,6.9534,0,0,6.9458,6.9461,0,0,0,0,0,0,0,0,6.9234,6.9245,6.9333,6.9333,6.9333,6.9382,6.9375,6.9454,6.9376,6.9358,6.9368,6.9365,6.9419,6.9425,6.9444,6.9537,6.954,6.9459,6.9462,6.9464,6.9466,0,0,0,0,0,0,0,6.9229,6.9242,6.937,6.9334,6.9334,6.9322,6.9329,6.939,6.9404,6.936,6.9357,6.9366,6.9418,6.9439,6.9445,6.9541,6.9459,6.9463,6.9467,6.9469,6.9709,6.9712,0,0,0,0,0,0,6.9226,6.9238,6.9367,6.9372,6.9276,6.9327,6.9335,6.9369,6.9403,6.9406,6.9369,6.9364,6.9431,6.9439,6.9448,6.9556,6.9464,6.9469,6.9472,6.9706,6.971,6.9714,0,0,0,0,0,0,6.9222,6.9238,6.9364,6.9304,6.9319,6.9333,6.9371,6.9372,6.9393,6.941,6.9411,6.9388,6.9429,6.944,6.9513,6.9557,6.9472,6.9477,6.9703,6.9707,6.9712,6.9773,0,0,0,0,0,0,6.9217,6.9237,6.9274,6.9305,6.9323,6.9431,6.9374,6.9375,6.9403,6.9398,6.9429,6.9431,6.9428,6.9505,6.9518,6.9563,6.9481,6.9698,6.9705,6.971,6.9767,6.978,6.979,0,0,0,0,0,6.9211,6.9287,6.9276,6.9292,6.937,6.9433,6.9443,6.944,6.9407,6.9443,6.9453,6.943,6.9551,6.9513,6.9527,6.9575,6.9696,6.9703,6.971,6.9762,6.9777,6.979,0,0,0,0,0,0,6.9258,6.9291,6.9279,6.9368,6.9399,6.9427,6.9472,6.9456,6.9495,6.9488,6.9481,6.9488,6.9563,6.9576,6.9533,6.9664,6.9618,6.9628,6.9653,6.9667,6.9678,6.9672,6.9485,0,0,0,0,0,6.9279,6.9331,6.9356,6.9432,6.9448,6.9458,6.9485,6.948,6.9511,6.9523,6.9538,6.9567,6.9611,6.964,6.9681,6.977,6.9774,6.9809,6.9821,6.983,6.9838,6.9883,6.9899,6.9737,6.9737,6.9737,0,0,6.9322,6.9347,6.938,6.9442,6.9465,6.9516,6.9469,6.9525,6.9561,6.953,6.96,6.9613,6.9643,6.9724,6.976,6.9737,6.9884,6.9839,6.9846,6.985,6.9892,6.9908,6.9921,6.9742,6.9741,6.974,0,0,6.9427,6.9452,6.9518,6.9542,6.9578,6.9584,6.9599,6.963,6.9638,6.9708,6.9685,6.9728,6.9805,6.9827,6.9848,6.9961,6.994,6.9975,7.0033,7.0077,7.009,7.0101,7.0139,7.0153,6.9983,6.9983,6.9983,0,6.9476,6.9554,6.9552,6.961,6.9637,6.9614,6.9678,6.9701,6.9748,6.9766,6.974,6.9835,6.9854,6.9938,6.9966,6.9985,7.0,6.997,7.0089,7.01,7.011,7.0146,7.0161,6.9987,6.9987,6.9986,6.9986,0,6.9611,6.9665,6.9713,6.9761,6.9793,6.9854,6.9859,6.9892,6.9884,6.9892,6.9962,6.9984,7.0029,7.0049,7.0041,7.0131,7.0116,7.009,7.0043,7.013,7.0163,7.0177,6.9993,6.9991,6.999,6.9989,0,0,6.9746,6.9793,6.981,6.9831,6.9869,6.9909,6.9968,7.0014,7.0041,7.0074,7.0121,7.0186,7.0162,7.0187,7.0181,7.022,7.0305,7.0189,7.019,7.0208,7.0403,7.0421,7.0437,7.0292,7.0295,7.0297,7.0399,0,6.9851,6.9956,6.9956,7.0052,7.01,7.0079,7.0129,7.0156,7.0165,7.0205,7.0214,7.0259,7.0226,7.024,7.0278,7.0287,7.0344,7.028,7.0333,7.0335,7.0324,7.0455,7.0474,7.057,7.0413,7.0415,7.0417,0,6.9988,7.0028,7.0129,7.0159,7.0179,7.0225,7.0266,7.0306,7.0335,7.0339,7.0366,7.0354,7.0411,7.0364,7.044,7.0397,7.0418,7.0426,7.043,7.0432,7.038,7.0459,7.06,7.0614,7.0438,7.0436,7.0434,0,7.0074,7.0152,7.0222,7.0241,7.0278,7.031,7.0327,7.0354,7.0381,7.0416,7.0433,7.0474,7.0496,7.0527,7.0525,7.0492,7.0602,7.0555,7.0603,7.0603,7.0626,7.0624,7.077,7.0644,7.0644,7.0643,7.0643,0,7.019,7.0252,7.0261,7.0304,7.0372,7.037,7.0437,7.045,7.0474,7.0517,7.05,7.054,7.0537,7.0577,7.0576,7.0638,7.0648,7.065,7.0649,7.0651,7.065,7.0663,7.0656,7.0647,7.0646,7.0645,7.0645,0,7.0297,7.0306,7.038,7.041,7.0418,7.0467,7.0491,7.053,7.0537,7.0592,7.0604,7.0615,7.0661,7.0663,7.0715,7.0715,7.0789,7.0782,7.078,7.0778,7.0825,7.082,7.0983,7.1003,7.0866,7.0867,7.0868,0,7.0369,7.0417,7.0452,7.0481,7.0499,7.0546,7.0574,7.0573,7.0603,7.0639,7.0674,7.0719,7.0754,7.0828,7.0839,7.0878,7.087,7.0924,7.0875,7.0875,7.0868,7.0864,7.0867,7.0933,7.0935,7.0936,7.0937,0,7.0497,7.0499,7.0541,7.0585,7.0619,7.0653,7.0684,7.0708,7.0711,7.0744,7.0792,7.082,7.0874,7.0918,7.0956,7.097,7.0953,7.0953,7.0965,7.0966,7.0963,7.0963,7.0803,7.0948,7.0947,7.0946,7.0946,7.0945,7.0587,7.0627,7.0658,7.0705,7.0729,7.0759,7.0797,7.081,7.085,7.0896,7.0892,7.0945,7.0971,7.1021,7.1038,7.1077,7.1058,7.1077,7.1082,7.1086,7.109,7.0959,7.1085,7.1084,7.1084,7.1084,7.1083,0,7.0711,7.073,7.0774,7.0819,7.0855,7.0839,7.0873,7.0903,7.0951,7.0978,7.1014,7.1067,7.1109,7.1124,7.1164,7.1192,7.1185,7.1203,7.1199,7.1202,7.1106,7.109,7.1208,7.1208,7.1208,7.1207,7.1207,7.1207,7.078,7.0847,7.0853,7.093,7.0948,7.1001,7.1021,7.1047,7.1069,7.1131,7.1166,7.1176,7.1197,7.1239,7.1276,7.1279,7.1293,7.1313,7.1313,7.1222,7.1209,7.1197,7.1182,7.1317,7.1317,7.1405,7.1406,7.1407]}]]